Other Public Products
Issued by NWS Charleston, SC

Current Version | Previous Version | Graphics & Text | Print | Product List | Glossary On
Versions: 1 2 3 4 5 6 7 8 9 10 11 12 13 14 15 16 17 18 19 20 21 22 23 24 25 26 27 28 29 30 31 32 33 34 35 36 37 38 39 40 41 42 43 44 45 46 47 48 49 50
685
FPUS82 KCHS 180327
OPUCHS

TEST...KCHS/KSAV Gateway Observations...TEST
National Weather Service Charleston SC
1000 PM EST TUE JAN 17 2017

NOTE: "fair" indicates few or no clouds below 12,000 feet with no
significant weather and/or obstructions to visibility.

SCZ050-WAZ558-NCZ071-TXZ119-213-PAZ071-DCZ001-FLZ074-172-MI076-
NYZ176-178-MAZ016-IL014-TNZ027-NJZ106-GAZ044-MD014-180400-
...Gateway Observations for Charleston International...

CITY           SKY/WX    TMP DP  RH WIND       PRES   REMARKS
Chas Airport   PTCLDY    60  58  92 S9        30.18F
Seattle        RAIN      43  43 100 CALM      29.53F FOG
Charlotte      MOCLDY    62  54  74 SW10      30.09F
Dallas DFW     CLOUDY    48  45  89 N14       30.14F
Dallas Love    CLOUDY    48  44  86 N10       30.16F
Philladelphia  CLOUDY    43  42  97 NE5       29.96F FOG
Wash National  CLOUDY    48  48 100 CALM      29.92S FOG
Baltimore      FOG       44  44 100 NE5       29.93S VSB 1/4
Miami          PTCLDY    72  61  68 E3        30.22R
Detroit        CLOUDY    40  38  93 W10       29.91R WCI  33
Newark         LGT RAIN  40  39  97 NE9       30.00F FOG     WCI  34
Laguardia      CLOUDY    39  37  92 NE12      30.01F FOG     WCI  32
J F K          LGT RAIN  42  39  89 NE8       30.02F FOG
Boston Logan   LGT RAIN  37  36  96 E16       30.14F FOG     WCI  28
Ft. Lauderdale PTCLDY    73  61  65 SE5       30.22R
Chicago O`Hare DRIZZLE   35  34  96 W10       29.98R WCI  27
Chicago Midway CLOUDY    34  33  96 W8        29.99S FOG     WCI  27
Houston Bush   LGT RAIN  59  58  96 NE9       30.06F VSB 1
Houston Hobby  CLOUDY    62  60  93 NE9       30.05S
Nashville      CLOUDY    53  46  77 NW3       30.14R
Atlanta        MOCLDY    64  57  78 SW7       30.15F

$$

GAZ044-118-TXZ119-213-NCZ071-DCZ001-MDZ014-506-PAZ021-071-NJZ106-
NYZ176-178-MAZ106-OHZ011-021-055-MIZ076-KYZ091-ILZ014-INZ047-
MNZ060-180400-
...Gateway Observations for Savannah International...

CITY           SKY/WX    TMP DP  RH WIND       PRES   REMARKS
Savannah Arpt  CLEAR     61  57  87 S8        30.20F
Atlanta        MOCLDY    64  57  78 SW7       30.15F
Charlotte      MOCLDY    62  54  74 SW10      30.09F
Dallas DFW     CLOUDY    48  45  89 N14       30.14F
Houston Bush   LGT RAIN  59  58  96 NE9       30.06F VSB 1
Wash National  CLOUDY    48  48 100 CALM      29.92S FOG
Wash Dulles    CLOUDY    52  50  93 SW3       29.91S
Baltimore      FOG       44  44 100 NE5       29.93S VSB 1/4
Philadelphia   CLOUDY    43  42  97 NE5       29.96F FOG
Newark         LGT RAIN  40  39  97 NE9       30.00F FOG     WCI  34
Laguardia      CLOUDY    39  37  92 NE12      30.01F FOG     WCI  32
J F K          LGT RAIN  42  39  89 NE8       30.02F FOG
Boston         LGT RAIN  37  36  96 E16       30.14F FOG     WCI  28
Pittsburg      CLOUDY    54  46  74 W7        29.87S
Akron          CLOUDY    50  41  71 W12       29.90R
Cleveland      CLOUDY    48  42  80 W17       29.93R
Cincinnati     DRIZZLE   45  40  82 W9        30.04R
Columbus         N/A     46  42  85 W9G18     29.98S
Detroit        CLOUDY    40  38  93 W10       29.91R WCI  33
Chicago O`Hare DRIZZLE   35  34  96 W10       29.98R WCI  27
Minneapolis    CLOUDY    30  27  88 W12       30.00R WCI  20
Indianapolis   CLOUDY    41  37  86 W16       30.05R

$$




USA.gov is the U.S. government's official web portal to all federal, state and local government web resources and services.